This is the latest recevied weather packets stored in our database for station/object W1REE. If no packets are shown the sender has not sent any weather packets the latest 1 day(s).
| Time | Temp. | Humidity | Pressure | Rain* | Wind** | Luminosity | Snow |
|---|---|---|---|---|---|---|---|
| 1836274814 | 16.11° C | 45% | 1031.6 hPa | 0 mm | 0 m/s | 0 W/m² | - |
| 1836274512 | 16.11° C | 44% | 1031.7 hPa | 0 mm | 0.89 m/s, 281° | 0 W/m² | - |
| 1836274365 | 16.11° C | 46% | 1031.7 hPa | 0 mm | 0.45 m/s, 282° | 0 W/m² | - |
| 1836274210 | 16.11° C | 44% | 1031.6 hPa | 0 mm | 0 m/s | 0 W/m² | - |
| 1836273910 | 16.67° C | 43% | 1031.8 hPa | 0 mm | 0.45 m/s, 283° | 0 W/m² | - |
| 1778035349 | 1.11° C | 97% | 1015.7 hPa | 0 mm | 0.45 m/s, 348° | 0 W/m² | - |
| 1778035045 | 1.11° C | 97% | 1015.6 hPa | 0 mm | 0 m/s | 0 W/m² | - |
| 1778034743 | 1.11° C | 97% | 1015.4 hPa | 0 mm | 0.45 m/s, 348° | 0 W/m² | - |
| 1778034439 | 1.11° C | 97% | 1015.3 hPa | 0 mm | 0 m/s | 0 W/m² | - |
| 1778034137 | 1.11° C | 97% | 1015.2 hPa | 1.78 mm | 0 m/s | 0 W/m² | - |
| 1778033835 | 1.11° C | 97% | 1015 hPa | 1.78 mm | 0 m/s | 0 W/m² | - |
| 1778033532 | 1.67° C | 97% | 1015 hPa | 1.27 mm | 0 m/s | 0 W/m² | - |
| 1778033228 | 1.67° C | 97% | 1015 hPa | 1.27 mm | 0 m/s | 0 W/m² | - |
| 1778032926 | 1.67° C | 97% | 1014.8 hPa | 0 mm | 0 m/s | 0 W/m² | - |
| 1778032624 | 1.67° C | 97% | 1014.7 hPa | 1.78 mm | 0 m/s | 0 W/m² | - |
| 1778032321 | 1.67° C | 97% | 1014.5 hPa | 1.78 mm | 0 m/s | 1 W/m² | - |
| 1778032018 | 1.67° C | 97% | 1014.4 hPa | 1.78 mm | 0 m/s | 2 W/m² | - |
| 1778031714 | 1.67° C | 97% | 1014.6 hPa | 0 mm | 0 m/s | 2 W/m² | - |
| 1778031412 | 1.67° C | 97% | 1014.5 hPa | 0 mm | 0 m/s | 3 W/m² | - |
| 1778031109 | 1.67° C | 97% | 1014.4 hPa | 0 mm | 0 m/s | 2 W/m² | - |
| 1778030805 | 1.67° C | 97% | 1014.2 hPa | 0 mm | 0 m/s | 5 W/m² | - |
| 1778030502 | 1.67° C | 97% | 1014.1 hPa | 1.27 mm | 0 m/s | 5 W/m² | - |
| 1778030199 | 1.67° C | 97% | 1014 hPa | 3.05 mm | 0 m/s | 5 W/m² | - |
| 1778029895 | 1.67° C | 97% | 1014 hPa | 1.78 mm | 0 m/s | 5 W/m² | - |
| 1778029594 | 1.67° C | 97% | 1013.9 hPa | 1.27 mm | 0 m/s | 5 W/m² | - |
* Rain latest hour (hover to see other rain measurements)
** Current wind speed in m/s (hover to see current wind gust speed)